Location: Unspecified
(44.0704°N, 88.6889°W)
Time: 07:41:30
(UTC+02:00)

Transit 2A - Pass Details

Date: 18 June 2019
Orbit: 594 x 965 km, 66.7° (Epoch: 17 July)

Event Time Altitude Azimuth Distance (km) Brightness Sun altitude
Rises 09:39:09 0° 222° (SW) 3,611 - -18.5°
Reaches altitude 10° 09:41:43 10° 226° (SW) 2,686 - -18.3°
Exits shadow 09:44:17 25° 233° (SW) 1,823 7.4 -18.1°
Maximum altitude 09:48:00 61° 306° (NW) 1,085 6.7 -17.8°
Drops below altitude 10° 09:54:14 10° 26° (NNE) 2,659 10.1 -17.3°
Sets 09:56:47 0° 30° (NNE) 3,572 11.3 -17.1°
